Starlink 30823

operational
NORAD ID: 58248 Int'l Des: 2023-171 Owner: SPXS Country: US Constellation: starlink
LEOCIRCULAR

Starlink 30823について

説明を読み込み中...

リアルタイム位置

3D地球を読み込み中...

次回通過

高度履歴

Altitude vs Time

uPlot chart will show altitude changes over time

軌道要素

1 58248U 23171U 26036.61921190 .00001286 00000-0 11028-3 0 9999
2 58248 43.0029 100.0489 0001380 269.1737 90.8947 15.02540730124906
Epoch: Feb 5, 2026 • Age: 9 hours

現在のステータス

高度 558.4 km
速度 7.58 km/s
衛星直下点 10.90°N, 136.63°E
打ち上げ日 Nov 8, 2023
運用期間 2.2 years
タイプ internet

技術仕様

分類 Payload
質量 730.00 kg
乾燥質量 700.00 kg
総質量 730.00 kg
長さ 0.30 m
直径 4.10 m
スパン 29.00 m
形状 Box + pan
製造者 SPXS
バスタイプ Starlink V2M
フェーズステータス In Orbit
所有者/国 SPXS/US

大規模コンステレーション

Loading constellations...